"Time","Temp","Dewpoint","Humidity","Pressure","Direction","Speed","Gust","Precip","PrecipRate"
"00:04:57","68.7","67.2","95","29.95","334","0","0","0.00","0.00"
"00:09:58","68.7","67.2","95","29.95","334","0","0","0.00","0.00"
"00:14:58","68.6","67.1","95","29.95","334","0","0","0.00","0.00"
"00:19:59","68.6","67.1","95","29.95","334","0","0","0.00","0.00"
"00:24:59","68.6","67","94.8","29.95","334","0","0","0.00","0.00"
"00:29:58","68.5","66.7","94","29.95","334","0","0","0.00","0.00"
"00:34:58","68.4","66.4","93.3","29.95","334","0","1.2","0.00","0.00"
"00:39:59","68.4","66.3","93","29.95","334","0.2","2.4","0.00","0.00"
"00:44:58","68.3","66.2","93","29.95","334","0.1","2.3","0.00","0.00"
"00:49:58","68.3","66.2","93","29.95","334","0","1.2","0.00","0.00"
"00:54:58","68.3","66.2","93","29.95","334","0","0","0.00","0.00"
"00:59:58","68.3","66.2","93","29.95","334","0","0","0.00","0.00"
"01:04:57","68.4","66.6","93.8","29.95","334","0.1","1.2","0.00","0.00"
"01:09:56","68.4","66.6","94","29.95","334","0.4","2.4","0.00","0.00"
"01:14:58","68.4","66.6","94","29.95","334","0.2","2.3","0.00","0.00"
"01:19:57","68.4","66.6","94","29.95","334","0","0","0.00","0.00"
"01:24:57","68.4","66.6","94","29.95","334","0","0","0.00","0.00"
"01:29:57","68.3","66.5","94","29.95","334","0","0","0.00","0.00"
"01:34:57","68.3","66.5","94","29.95","334","0","0","0.00","0.00"
"01:39:58","68.3","66.5","94","29.95","334","0","0","0.00","0.00"
"01:44:58","68.2","66.4","94","29.95","334","0","0","0.00","0.00"
"01:49:58","68.2","66.4","94","29.95","334","0","0","0.00","0.00"
"01:54:58","68.1","66.5","94.6","29.95","334","0","0","0.01","0.01"
"01:59:57","68","66.5","94.8","29.95","334","0","0","0.01","0.01"
"02:04:56","68","66.5","95","29.95","334","0","0","0.01","0.01"
"02:09:56","67.9","66.4","95","29.95","334","0","0","0.01","0.01"
"02:14:57","67.9","66.4","95","29.95","334","0.2","2.4","0.01","0.01"
"02:19:57","67.7","66.4","95.5","29.95","334","0.2","1.2","0.01","0.01"
"02:24:57","67.7","66.5","96","29.95","334","0.1","1.2","0.01","0.01"
"02:29:56","67.7","66.5","96","29.95","334","0.2","1.2","0.01","0.01"
"02:34:56","67.6","66.4","96","29.95","334","0.3","1.2","0.01","0.01"
"02:39:57","67.6","66.4","96","29.95","334","0","0","0.01","0.01"
"02:44:57","67.6","66.4","96","29.95","334","0","0","0.01","0.01"
"02:49:56","67.6","66.4","96","29.95","334","0","0","0.01","0.01"
"02:54:56","67.6","66.4","96","29.95","334","0","0","0.01","0.01"
"02:59:55","67.5","66.3","96","29.95","334","0","0","0.01","0.00"
"03:04:56","67.5","66.3","96","29.94","334","0","0","0.01","0.00"
"03:09:59","67.4","66.2","96","29.94","334","0","0","0.01","0.00"
"03:14:56","67.4","66.2","96","29.94","334","0","0","0.01","0.00"
"03:19:56","67.4","66.2","96","29.94","334","0","0","0.01","0.00"
"03:24:59","67.3","66.1","96","29.94","334","0","0","0.01","0.00"
"03:29:58","67.3","66.1","96","29.94","334","0","0","0.01","0.00"
"03:34:58","67.2","66.3","96.8","29.94","334","0","0","0.01","0.00"
"03:39:59","67.2","66.3","97","29.94","334","0","0","0.01","0.00"
"03:44:59","67.3","66.4","97","29.94","334","0","0","0.01","0.00"
"03:49:59","67.3","66.4","97","29.94","334","0","0","0.01","0.00"
"03:54:58","67.3","66.4","97","29.94","334","0","0","0.01","0.00"
"03:59:58","67.2","66.1","96.3","29.94","334","0","0","0.01","0.00"
"04:04:57","67.1","66.2","96.8","29.94","334","0","0","0.01","0.00"
"04:09:56","67.1","66.2","97","29.94","334","0","0","0.01","0.00"
"04:14:57","67.1","66.2","97","29.94","334","0","0","0.01","0.00"
"04:19:57","67.1","66.2","97","29.94","334","0","0","0.01","0.00"
"04:24:56","67.1","66.2","97","29.94","334","0","0","0.01","0.00"
"04:29:59","67.1","66.2","97","29.94","334","0","0","0.01","0.00"
"04:34:59","67.1","66.2","97","29.94","334","0","0","0.01","0.00"
"04:39:56","67.1","66.2","97","29.94","334","0","0","0.01","0.00"
"04:44:59","67.1","66.2","97","29.94","334","0","0","0.01","0.00"
"04:49:59","67","66.1","97","29.93","334","0","0","0.01","0.00"
"04:54:58","67","66.1","96.9","29.93","334","0","0","0.01","0.00"
"04:59:58","67","65.8","96.1","29.94","334","0","0","0.01","0.00"
"05:04:57","66.9","65.7","96","29.94","334","0","0","0.01","0.00"
"05:09:57","66.9","65.7","96","29.94","334","0","0","0.01","0.00"
"05:14:58","66.8","65.6","96","29.94","334","0","0","0.01","0.00"
"05:19:58","66.8","65.6","96","29.94","334","0","0","0.01","0.00"
"05:24:57","66.8","65.6","96","29.94","334","0","0","0.01","0.00"
"05:29:57","66.8","65.6","96","29.94","334","0","0","0.01","0.00"
"05:34:56","66.8","65.6","96","29.94","334","0","0","0.01","0.00"
"05:39:58","66.8","65.6","96","29.94","334","0","0","0.01","0.00"
"05:44:57","66.8","65.6","96","29.94","334","0","0","0.01","0.00"
"05:49:57","66.8","65.6","96","29.94","334","0","0","0.01","0.00"
"05:54:56","66.8","65.6","96","29.94","334","0","0","0.01","0.00"
"05:59:59","66.8","65.6","96","29.94","334","0","0","0.01","0.00"
"06:04:58","66.8","65.6","96.2","29.94","334","0","0","0.01","0.00"
"06:09:59","66.8","65.7","96.5","29.94","334","0","0","0.01","0.00"
"06:14:56","66.7","65.5","96","29.94","334","0","0","0.01","0.00"
"06:19:59","66.7","65.7","96.5","29.94","334","0","0","0.01","0.00"
"06:24:59","66.8","65.8","97","29.94","334","0","2.4","0.01","0.00"
"06:29:59","66.8","65.9","97","29.94","334","0.6","3.6","0.01","0.00"
"06:34:58","66.8","65.9","97","29.94","334","0.1","1.2","0.01","0.00"
"06:39:58","66.7","65.8","97","29.94","334","0.5","3.6","0.01","0.00"
"06:44:58","66.8","65.9","97","29.94","334","0.2","3.5","0.01","0.00"
"06:49:58","66.8","65.9","97","29.94","334","1","2.4","0.01","0.00"
"06:54:58","66.8","65.9","97","29.94","334","0.4","1.2","0.01","0.00"
"06:59:58","66.8","65.9","97","29.94","334","0.7","3.6","0.01","0.00"
"07:04:56","66.8","65.9","97","29.94","334","0.6","2.4","0.01","0.00"
"07:09:56","66.8","65.9","97","29.94","334","0.2","1.2","0.01","0.00"
"07:14:58","66.8","65.9","97","29.94","334","0.3","2.4","0.01","0.00"
"07:19:57","66.9","66","97","29.94","334","0.1","3.6","0.01","0.00"
"07:24:57","66.9","66","97","29.94","334","0.9","3.5","0.01","0.00"
"07:29:56","66.9","66","97","29.95","334","0.6","3.6","0.01","0.00"
"07:34:59","66.9","66","97","29.95","334","1.2","3.6","0.01","0.00"
"07:39:56","67","66.1","97","29.95","334","0.8","4.8","0.01","0.00"
"07:44:59","67.1","66.2","97","29.95","334","1.6","4.8","0.01","0.00"
"07:49:59","67.1","66.2","97","29.95","334","0.9","3.6","0.01","0.00"
"07:54:58","67.1","66","96.3","29.95","334","0.6","2.4","0.01","0.00"
"07:59:58","67.1","65.9","96","29.95","334","0.3","2.4","0.01","0.00"
"08:04:57","67.2","66","96","29.95","333","0.4","2.4","0.01","0.00"
"08:09:56","67.2","66","96","29.95","333","0.1","1.2","0.01","0.00"
"08:14:57","67.4","66.2","96","29.95","333","0.6","3.6","0.01","0.00"
"08:19:56","67.7","66.6","96.4","29.95","333","0.3","2.3","0.01","0.00"
"08:24:56","68.1","66.9","96","29.95","333","0.2","2.4","0.01","0.00"
"08:29:59","68.6","67","94.5","29.95","332","1.1","4.8","0.01","0.00"
"08:34:58","69","67","93.3","29.95","333","1","3.6","0.01","0.00"
"08:39:58","69.2","67","92.7","29.95","333","0.4","2.4","0.01","0.00"
"08:44:58","69.4","67","92","29.95","324","1.1","4.8","0.01","0.00"
"08:49:56","69.7","67.2","91.5","29.95","341","1.6","6","0.01","0.00"
"08:54:59","69.9","67","90.4","29.95","329","1.9","7.2","0.01","0.00"
"08:59:59","70.1","66.9","89.7","29.95","313","0.7","2.4","0.01","0.00"
"09:04:57","70.1","66.9","89.8","29.95","314","0.1","2.3","0.01","0.00"
"09:09:57","70.1","67","89.8","29.95","314","0.2","2.4","0.01","0.00"
"09:14:58","70","66.8","89.5","29.95","314","0.2","2.4","0.01","0.00"
"09:19:57","70.1","66.9","89.7","29.95","331","2.4","6","0.01","0.00"
"09:24:56","70","66.6","89","29.95","339","3.3","7.2","0.01","0.00"
"09:29:59","70.2","66.9","89.4","29.95","347","2.3","7.2","0.01","0.00"
"09:34:58","70.6","67.2","88.9","29.95","339","1.9","8.4","0.01","0.00"
"09:39:58","71","67.4","88.2","29.95","333","0.8","4.6","0.01","0.00"
"09:44:57","71.7","67.9","87.7","29.95","333","0.8","2.4","0.01","0.00"
"09:49:56","72.4","67.9","85.8","29.95","333","3.1","8.4","0.01","0.00"
"09:54:59","72.7","67.5","83.9","29.95","335","2","6.9","0.01","0.00"
"09:59:58","72.8","67.6","83.6","29.95","331","2.4","7.2","0.01","0.00"
"10:04:57","73.2","67.8","83.3","29.95","328","1.2","6","0.01","0.00"
"10:09:59","73.6","67.6","81.5","29.95","353","1.2","5.8","0.01","0.00"
"10:14:56","74","67.8","81.1","29.95","17","0.8","3.6","0.01","0.00"
"10:19:59","74.2","68","81.1","29.95","358","1.1","4.8","0.01","0.00"
"10:24:58","74.3","68.2","81.2","29.95","352","1.1","3.5","0.01","0.00"
"10:29:57","74.4","68.4","81.8","29.95","43","0.8","2.4","0.01","0.00"
"10:34:56","74.6","68.7","81.8","29.95","37","0.7","2.4","0.01","0.00"
"10:39:57","74.9","68.6","80.9","29.95","31","0.9","2.4","0.01","0.00"
"10:44:56","75.1","68.7","80.5","29.95","17","0.8","3.6","0.01","0.00"
"10:49:59","75.3","68.9","80.4","29.95","347","1","3.6","0.01","0.00"
"10:54:59","75.2","68.1","78.6","29.95","337","0.6","2.4","0.01","0.00"
"10:59:57","75.2","68.4","79.5","29.95","335","1.4","4.8","0.01","0.00"
"11:04:59","75.2","68","78.4","29.95","328","2","6","0.01","0.00"
"11:09:58","75","67.9","78.6","29.95","325","1.2","6","0.01","0.00"
"11:14:59","75","68.1","79.1","29.95","328","1.1","6","0.01","0.00"
"11:19:58","75","68.4","79.9","29.95","330","0.5","2.4","0.01","0.00"
"11:24:58","75.3","68.4","79.2","29.95","3","0.9","2.4","0.01","0.00"
"11:29:57","75.6","68.4","78.4","29.95","3","1.7","8.4","0.01","0.00"
"11:34:56","76","68.8","78.4","29.95","343","2.3","8.1","0.01","0.00"
"11:39:58","76.2","68.5","77.1","29.95","348","1.3","4.8","0.01","0.00"
"11:44:56","76.3","68.3","76.5","29.95","316","1.7","6","0.01","0.00"
"11:49:57","76.1","68","75.8","29.95","323","0.9","3.6","0.01","0.00"
"11:54:56","76.1","67.8","75.7","29.95","332","1.8","6","0.01","0.00"
"11:59:58","76.6","68.6","76.4","29.95","328","2.7","8.4","0.01","0.00"
"12:04:57","77","68.4","74.9","29.94","333","2.7","10.8","0.01","0.00"
"12:09:56","76.9","68.1","74.1","29.94","340","1.3","4.8","0.01","0.00"
"12:14:57","76.4","67.9","75.1","29.94","339","1.3","8.4","0.01","0.00"
"12:19:56","75.8","67.6","75.7","29.94","339","1.3","6.9","0.01","0.00"
"12:24:56","75.5","67.9","77.2","29.94","339","1.5","5.8","0.01","0.00"
"12:29:59","75.4","67.4","76.3","29.94","323","1.7","7.2","0.01","0.00"
"12:34:58","75.5","66.8","74.5","29.94","342","1.5","6.9","0.01","0.00"
"12:39:58","75.6","67.1","75","29.94","313","1.4","3.6","0.01","0.00"
"12:44:58","76.1","67.4","74.5","29.94","314","1.8","7.2","0.01","0.00"
"12:49:57","76.5","67.2","73.1","29.94","340","2.8","10.8","0.01","0.00"
"12:54:56","76.4","66.9","72.6","29.94","327","1.2","4.8","0.01","0.00"
"12:59:59","76.1","66.7","72.9","29.94","327","1.5","6","0.01","0.00"
"13:04:58","75.8","66.5","73","29.94","329","1.2","3.6","0.01","0.00"
"13:09:57","75.7","66.6","73.6","29.94","336","2.3","6","0.01","0.00"
"13:14:58","75.6","66.5","73.4","29.94","350","2.1","7.2","0.01","0.00"
"13:19:57","75.6","66.3","73","29.94","348","1.7","6.9","0.01","0.00"
"13:24:56","75.7","66.4","72.9","29.94","337","4","10.8","0.01","0.00"
"13:29:59","75.7","66","72","29.94","313","1.2","5.8","0.01","0.00"
"13:34:58","75.5","66.1","72.8","29.94","336","2.8","8.4","0.01","0.00"
"13:39:59","75.4","66.2","73.1","29.94","337","3.4","9.6","0.01","0.00"
"13:44:57","75.4","66.1","72.9","29.94","335","3","7.2","0.01","0.00"
"13:49:57","75.7","67.3","75.3","29.94","324","2","6","0.01","0.00"
"13:53:38","76.1","66.8","72.9","29.94","315","2","4.8","0.01","0.00"
"13:59:57","76.2","65.9","70.4","29.94","330","1.3","6","0.01","0.00"
"14:04:52","76.2","66.2","71.3","29.93","330","1.8","4.8","0.01","0.00"
"14:09:59","76.2","66.2","71.3","29.93","342","1.7","7.2","0.01","0.00"
"14:14:57","76.2","66","70.7","29.93","352","1.6","4.8","0.01","0.00"
"14:19:58","76.2","66.1","70.8","29.93","321","0.9","3.6","0.01","0.00"
"14:24:59","76.3","65.6","69.6","29.93","332","2.1","7.2","0.01","0.00"
"14:29:56","76.3","65.1","68.4","29.93","345","3.4","7.2","0.01","0.00"
"14:34:57","76.2","65.3","69","29.93","340","2.8","8.4","0.01","0.00"
"14:39:56","76.2","65.8","70.2","29.93","345","1.2","4.8","0.01","0.00"
"14:44:57","76.3","66","70.5","29.93","333","2","4.8","0.01","0.00"
"14:49:58","76.4","66.1","70.5","29.92","328","1.4","4.6","0.01","0.00"
"14:54:55","76.9","67.2","71.8","29.92","323","0.7","2.4","0.01","0.00"
"14:59:57","77.7","67.2","70.1","29.92","345","1.5","6","0.01","0.00"
"15:04:56","78.1","66.4","67.3","29.92","335","1.6","4.8","0.01","0.00"
"15:09:56","78.1","66.1","66.7","29.92","342","1.9","7.2","0.01","0.00"
"15:14:58","78.1","66.2","66.8","29.92","335","3.9","8.4","0.01","0.00"
"15:19:59","78.5","66.4","66.5","29.91","340","3.9","12","0.01","0.00"
"15:24:57","78.5","66","65.7","29.91","338","4.2","8.4","0.01","0.00"
"15:29:57","78.2","65.9","66.1","29.91","289","2.4","7.2","0.01","0.00"
"15:34:58","78.3","66.4","66.9","29.91","316","2.2","7.2","0.01","0.00"
"15:39:57","78.7","66.7","66.8","29.91","344","2","8.4","0.01","0.00"
"15:44:56","78.8","66.3","65.5","29.91","344","2.1","6","0.01","0.00"
"15:49:59","78.9","66.5","65.9","29.91","324","2.2","6","0.01","0.00"
"15:54:59","79.2","67.2","66.7","29.91","325","2.1","6","0.01","0.00"
"15:59:57","79.5","66.8","65.2","29.91","343","1","7.2","0.01","0.00"
"16:04:58","79.8","66.6","64.3","29.90","336","1.3","6","0.01","0.00"
"16:09:56","80.1","66.3","62.9","29.90","339","2.2","6","0.01","0.00"
"16:14:56","80.3","66.8","63.6","29.90","344","1.5","8.4","0.01","0.00"
"16:19:59","80.3","66.2","62.2","29.89","333","2.7","6.9","0.01","0.00"
"16:24:58","80.5","66.8","63.1","29.89","335","1.3","10.8","0.01","0.00"
"16:29:57","80.3","66","61.8","29.89","332","1.7","6","0.01","0.00"
"16:34:59","79.8","65.9","62.5","29.89","335","3.3","8.4","0.01","0.00"
"16:39:59","79.3","65.8","63.4","29.89","342","2.1","8.4","0.01","0.00"
"16:44:56","78.6","65.6","64.3","29.89","359","1.5","8.1","0.01","0.00"
"16:49:58","78.2","65.1","64.3","29.89","351","1.7","5.8","0.01","0.00"
"16:54:59","77.8","64.6","64.1","29.89","346","1.4","4.8","0.01","0.00"
"16:59:56","77.5","64.6","64.5","29.89","346","1","3.6","0.01","0.00"
"17:04:56","77.9","65.7","66.2","29.89","346","1","3.6","0.01","0.00"
"17:09:56","78.6","66.2","65.9","29.89","344","0.3","3.6","0.01","0.00"
"17:14:56","79.1","65.7","63.7","29.89","341","0.6","3.6","0.01","0.00"
"17:19:59","79.2","65.6","63.1","29.89","339","0.5","4.8","0.01","0.00"
"17:24:58","79.3","65.2","62.2","29.89","330","2.9","7.2","0.01","0.00"
"17:29:57","79.6","65.9","62.9","29.89","342","2.4","6","0.01","0.00"
"17:34:56","79.9","66.1","62.9","29.89","312","2.1","9.6","0.01","0.00"
"17:39:56","79.9","65.8","62.3","29.89","335","3","9.2","0.01","0.00"
"17:44:58","79.4","65.7","63","29.89","334","1.4","6","0.01","0.00"
"17:49:58","79","65.7","63.9","29.89","331","1.2","3.6","0.01","0.00"
"17:54:59","78.6","65.4","63.9","29.89","329","1.5","4.8","0.01","0.00"
"17:59:56","78.2","65.4","64.8","29.89","329","0.5","2.4","0.01","0.00"
"18:04:51","78","65.5","65.5","29.89","329","1.4","4.8","0.01","0.00"
"18:09:59","77.8","65.1","65.1","29.89","330","2.1","6","0.01","0.00"
"18:14:57","77.6","65","65.3","29.89","331","1.8","4.6","0.01","0.00"
"18:19:59","77.3","65","65.8","29.89","333","1.2","4.8","0.01","0.00"
"18:24:56","77.1","65","66.2","29.89","333","0.9","4.6","0.01","0.00"
"18:29:57","76.9","64.9","66.5","29.89","333","1.2","6","0.01","0.00"
"18:34:58","76.8","64.6","66","29.89","332","1.3","7.2","0.01","0.00"
"18:39:57","76.6","64.6","66.5","29.89","329","0.5","3.6","0.01","0.00"
"18:44:59","76.4","64.8","67.3","29.89","329","0","0","0.01","0.00"
"18:49:57","76.2","64.9","68","29.89","329","0","0","0.01","0.00"
"18:54:56","76","65.1","68.8","29.89","329","0","0","0.01","0.00"
"18:59:57","75.9","65","69","29.89","329","0","0","0.01","0.00"
"19:04:57","75.7","64.9","69.2","29.89","329","0","0","0.01","0.00"
"19:09:56","75.4","65","70.3","29.89","329","0","0","0.01","0.00"
"19:14:59","75","64.9","70.8","29.89","329","0","0","0.01","0.00"
"19:19:57","74.6","65","71.8","29.89","329","0","0","0.01","0.00"
"19:24:59","74.2","65.2","73.3","29.89","329","0","0","0.01","0.00"
"19:29:57","73.7","65.2","74.6","29.89","331","0","0","0.01","0.00"
"19:34:59","73.2","65.2","75.9","29.89","330","0","0","0.01","0.00"
"19:39:58","72.7","65","76.8","29.89","330","0.1","1.2","0.01","0.00"
"19:44:57","72.2","64.6","77.2","29.89","330","0","0","0.01","0.00"
"19:49:55","71.9","64.8","78.3","29.89","330","0","0","0.01","0.00"
"19:54:57","71.6","64.9","79.6","29.89","330","0","0","0.01","0.00"
"19:59:59","71","65","81.4","29.89","330","0","0","0.01","0.00"
"20:04:58","70.6","64.9","82.5","29.89","330","0","0","0.01","0.00"
"20:09:58","70.2","64.8","83.1","29.89","330","0","0","0.01","0.00"
"20:14:58","69.7","64.5","83.6","29.89","330","0","0","0.01","0.00"
"20:19:56","69.3","64.5","84.4","29.89","330","0","0","0.01","0.00"
"20:24:58","69","64.4","85.3","29.89","330","0","0","0.01","0.00"
"20:29:59","68.7","64.3","86.2","29.90","330","0","0","0.01","0.00"
"20:34:57","68.5","64.7","87.8","29.90","330","0","0","0.01","0.00"
"20:39:36","68.3","64.9","89","29.90","330","0","0","0.01","0.00"
"20:44:59","68.2","64.8","89","29.91","330","0","0","0.01","0.00"
"20:49:56","68.1","64.7","89","29.91","330","0","0","0.01","0.00"
"20:54:58","67.9","64.6","89.2","29.91","330","0","0","0.01","0.00"
"20:59:56","67.8","64.8","90","29.91","330","0","0","0.01","0.00"
"21:04:59","67.6","64.6","90","29.91","330","0","0","0.01","0.00"
"21:09:59","67.4","64.4","90","29.91","330","0","0","0.01","0.00"
"21:14:58","67.2","64.2","90","29.92","330","0","0","0.01","0.00"
"21:19:56","66.9","64.1","90.6","29.92","330","0","0","0.01","0.00"
"21:24:58","66.7","64","91","29.92","330","0","0","0.01","0.00"
"21:29:59","66.5","63.8","91","29.92","330","0","0","0.01","0.00"
"21:34:57","66.3","63.9","91.9","29.92","330","0","0","0.01","0.00"
"21:39:56","66.2","63.8","92.1","29.92","330","0","0","0.01","0.00"
"21:44:58","66.1","64","93","29.93","330","0","0","0.01","0.00"
"21:49:56","66.1","64","93","29.93","330","0","0","0.01","0.00"
"21:54:58","66","63.9","93","29.93","330","0","0","0.01","0.00"
"21:59:56","65.9","63.8","93","29.93","330","0","0","0.01","0.00"
"22:04:56","65.8","63.7","93","29.93","330","0","0","0.01","0.00"
"22:09:56","65.6","63.6","93.2","29.93","330","0","0","0.01","0.00"
"22:14:59","65.6","63.8","94","29.93","330","0","0","0.01","0.00"
"22:19:57","65.5","63.7","94","29.93","330","0","0","0.01","0.00"
"22:24:59","65.3","63.5","94","29.93","330","0","0","0.01","0.00"
"22:29:57","65.2","63.4","94","29.94","330","0","0","0.01","0.00"
"22:34:59","65","63.2","94","29.94","330","0","0","0.01","0.00"
"22:39:58","64.9","63.1","94","29.94","330","0","0","0.01","0.00"
"22:44:56","64.9","63.3","94.7","29.94","330","0","0","0.01","0.00"
"22:49:58","64.8","63.3","95","29.94","330","0","0","0.01","0.00"
"22:54:59","64.7","63.1","94.8","29.94","330","0","0","0.01","0.00"
"22:59:57","64.6","63.1","95","29.94","330","0","0","0.01","0.00"
"23:04:57","64.6","63.1","95","29.94","330","0","0","0.01","0.00"
"23:09:57","64.6","63.1","95","29.94","330","0","0","0.01","0.00"
"23:14:57","64.6","63.1","95","29.94","330","0","0","0.01","0.00"
"23:19:59","64.5","63","95","29.94","330","0","0","0.01","0.00"
"23:24:56","64.5","63","95","29.94","330","0","0","0.01","0.00"
"23:29:58","64.4","62.9","95","29.94","330","0","0","0.01","0.00"
"23:34:56","64.4","62.9","95","29.94","330","0","0","0.01","0.00"
"23:39:59","64.2","62.7","95","29.94","330","0","0","0.01","0.00"
"23:44:57","64.1","62.6","95","29.95","330","0","0","0.01","0.00"
"23:49:59","64","62.5","95","29.95","330","0","0","0.01","0.00"
